Change the Weather History Date:

Saturday, November 9, 2013

  Actual Average Record
Temperature  
Mean Temperature 32 °F -  
Max Temperature 33 °F 35 °F 64 °F (2010)
Min Temperature 32 °F 21 °F 14 °F (2014)
Degree Days  
Heating Degree Days 32    
Moisture  
Dew Point 30 °F    
Average Humidity 91    
Maximum Humidity 93    
Minimum Humidity 87    
Precipitation  
Precipitation 0.01 in - - ()
Sea Level Pressure  
Sea Level Pressure 29.73 in    
Wind  
Wind Speed 5 mph (WNW)    
Max Wind Speed 15 mph    
Max Gust Speed 22 mph    
Visibility 6 miles    
Events Snow    
Averages and records for this station are not official NWS values.
T = Trace of Precipitation, MM = Missing Value Source: NWS Daily Summary

Daily Weather History Graph

Daily Weather History Graph

Search for Another Location

Airport or City:

Trip Planner

Search our weather history database for the weather conditions in past years. The results will help you decide how hot, cold, wet, or windy it might be!

Date:

Astronomy

Nov. 09, 2013 Rise Set
Actual Time 7:09 AM CST 4:40 PM CST
Civil Twilight 6:35 AM CST 5:14 PM CST
Nautical Twilight 5:58 AM CST 5:51 PM CST
Astronomical Twilight 5:22 AM CST 6:27 PM CST
Moon 12:41 PM CST (11/9) 11:18 PM CST (11/9)
Length of Visible Light 10h 38m
Length of Day
9h 31m
Waxing Crescent, 44% of the Moon is Illuminated
Nov 9
Waxing Crescent
Nov 9
First Quarter
Nov 17
Full
Nov 25
Last Quarter
Dec 2
New

Hourly Weather History & Observations

Time (CST) Temp. Windchill Dew Point Humidity Pressure Visibility Wind Dir Wind Speed Gust Speed Precip Events Conditions
12:13 AM 32.0 °F 28.7 °F 30.2 °F 93% 29.56 in 2.5 mi East 3.5 mph - N/A   Overcast
12:33 AM 32.0 °F - 30.2 °F 93% 29.56 in 3.0 mi Calm Calm - N/A Snow Light Snow
12:53 AM 32.0 °F - 30.2 °F 93% 29.56 in 5.0 mi Calm Calm - N/A Snow Light Snow
1:13 AM 32.0 °F - 30.2 °F 93% 29.55 in 5.0 mi Calm Calm - N/A   Overcast
1:33 AM 32.0 °F - 30.2 °F 93% 29.55 in 5.0 mi Calm Calm - N/A   Overcast
1:53 AM 32.0 °F - 30.2 °F 93% 29.56 in 5.0 mi Calm Calm - N/A   Overcast
2:13 AM 32.0 °F - 30.2 °F 93% 29.56 in 5.0 mi Calm Calm - N/A   Overcast
2:33 AM 32.0 °F - 30.2 °F 93% 29.55 in 5.0 mi Calm Calm - N/A   Overcast
2:53 AM 32.0 °F - 30.2 °F 93% 29.55 in 3.0 mi Calm Calm - N/A   Overcast
3:13 AM 32.0 °F - 30.2 °F 93% 29.55 in 2.5 mi Calm Calm - N/A   Light Drizzle
3:33 AM 32.0 °F - 30.2 °F 93% 29.55 in 1.8 mi Calm Calm - N/A   Overcast
3:53 AM 32.0 °F - 30.2 °F 93% 29.55 in 1.8 mi Calm Calm - N/A Snow Light Snow
4:13 AM 32.0 °F - 30.2 °F 93% 29.55 in 2.0 mi Calm Calm - N/A   Overcast
4:33 AM 32.0 °F - 30.2 °F 93% 29.56 in 1.0 mi Calm Calm - N/A   Overcast
4:53 AM 32.0 °F - 30.2 °F 93% 29.56 in 1.0 mi Calm Calm - N/A   Overcast
5:13 AM 32.0 °F - 30.2 °F 93% 29.57 in 1.8 mi Calm Calm - N/A   Overcast
5:33 AM 32.0 °F - 30.2 °F 93% 29.57 in 2.5 mi Calm Calm - N/A   Overcast
5:53 AM 32.0 °F 28.7 °F 30.2 °F 93% 29.58 in 2.5 mi West 3.5 mph - N/A   Overcast
6:13 AM 32.0 °F 27.5 °F 30.2 °F 93% 29.59 in 2.5 mi West 4.6 mph - N/A   Overcast
6:33 AM 32.0 °F 26.4 °F 30.2 °F 93% 29.59 in 3.0 mi WNW 5.8 mph - N/A   Overcast
6:53 AM 32.0 °F 26.4 °F 30.2 °F 93% 29.60 in 3.0 mi WNW 5.8 mph - N/A   Overcast
7:13 AM 32.0 °F 24.8 °F 30.2 °F 93% 29.61 in 4.0 mi WNW 8.1 mph - N/A   Overcast
7:33 AM 32.0 °F 24.8 °F 30.2 °F 93% 29.61 in 4.0 mi WNW 8.1 mph - N/A   Overcast
7:53 AM 32.0 °F 24.2 °F 30.2 °F 93% 29.62 in 4.0 mi WNW 9.2 mph - N/A   Overcast
8:13 AM 32.0 °F 24.2 °F 30.2 °F 93% 29.63 in 3.0 mi WNW 9.2 mph - N/A   Overcast
8:33 AM 32.0 °F 24.2 °F 30.2 °F 93% 29.63 in 4.0 mi WNW 9.2 mph - N/A   Overcast
8:53 AM 32.0 °F 23.6 °F 30.2 °F 93% 29.64 in 5.0 mi WNW 10.4 mph 16.1 mph N/A   Overcast
9:13 AM 32.0 °F 24.8 °F 30.2 °F 93% 29.65 in 5.0 mi WNW 8.1 mph - N/A Snow Light Snow
9:33 AM 32.0 °F 23.6 °F 30.2 °F 93% 29.65 in 4.0 mi WNW 10.4 mph 16.1 mph N/A   Overcast
9:53 AM 32.0 °F 24.8 °F 30.2 °F 93% 29.66 in 5.0 mi WNW 8.1 mph - N/A Snow Light Snow
10:13 AM 32.0 °F 24.2 °F 30.2 °F 93% 29.67 in 2.0 mi WNW 9.2 mph - N/A Snow Snow
10:33 AM 33.8 °F 27.0 °F 30.2 °F 87% 29.67 in 3.0 mi WNW 8.1 mph - N/A Snow Light Snow
10:53 AM 33.8 °F 26.4 °F 30.2 °F 87% 29.68 in 5.0 mi WNW 9.2 mph - N/A Snow Light Snow
11:13 AM 33.8 °F 27.0 °F 30.2 °F 87% 29.69 in 5.0 mi WNW 8.1 mph 16.1 mph N/A Snow Light Snow
11:33 AM 33.8 °F 27.0 °F 30.2 °F 87% 29.69 in 7.0 mi WNW 8.1 mph - N/A Snow Light Snow
11:53 AM 33.8 °F 26.4 °F 30.2 °F 87% 29.70 in 10.0 mi WNW 9.2 mph 16.1 mph N/A   Light Drizzle
12:13 PM 33.8 °F 25.8 °F 30.2 °F 87% 29.70 in 10.0 mi WNW 10.4 mph 16.1 mph N/A   Overcast
12:33 PM 33.8 °F 25.3 °F 30.2 °F 87% 29.71 in 10.0 mi WNW 11.5 mph 16.1 mph N/A Snow Light Snow
12:53 PM 33.8 °F 25.3 °F 30.2 °F 87% 29.71 in 7.0 mi WNW 11.5 mph 16.1 mph N/A   Overcast
1:14 PM 33.8 °F 24.8 °F 30.2 °F 87% 29.72 in 10.0 mi WNW 12.7 mph 19.6 mph N/A   Overcast
1:33 PM 33.8 °F 24.3 °F 30.2 °F 87% 29.72 in 10.0 mi West 13.8 mph 21.9 mph N/A   Overcast
1:53 PM 33.8 °F 24.8 °F 30.2 °F 87% 29.74 in 10.0 mi WNW 12.7 mph 17.3 mph N/A   Overcast
2:13 PM 33.8 °F 23.9 °F 30.2 °F 87% 29.75 in 10.0 mi West 15.0 mph 21.9 mph N/A   Overcast
2:33 PM 32.0 °F 24.8 °F 30.2 °F 93% 29.76 in 3.0 mi West 8.1 mph 16.1 mph N/A   Overcast
2:53 PM 32.0 °F 24.2 °F 30.2 °F 93% 29.76 in 7.0 mi WNW 9.2 mph 18.4 mph N/A   Overcast
3:13 PM 32.0 °F 24.8 °F 30.2 °F 93% 29.77 in 10.0 mi WNW 8.1 mph 19.6 mph N/A   Overcast
3:33 PM 32.0 °F 23.0 °F 30.2 °F 93% 29.79 in 10.0 mi WNW 11.5 mph 19.6 mph N/A   Overcast
3:53 PM 32.0 °F 24.8 °F 30.2 °F 93% 29.80 in 10.0 mi WNW 8.1 mph 16.1 mph N/A   Overcast
4:13 PM 32.0 °F 23.6 °F 30.2 °F 93% 29.81 in 5.0 mi WNW 10.4 mph 16.1 mph N/A   Overcast
4:33 PM 32.0 °F 24.2 °F 30.2 °F 93% 29.82 in 4.0 mi WNW 9.2 mph - N/A   Overcast
4:53 PM 32.0 °F 24.8 °F 30.2 °F 93% 29.83 in 5.0 mi WNW 8.1 mph - N/A Snow Light Snow
5:13 PM 32.0 °F 23.6 °F 30.2 °F 93% 29.84 in 5.0 mi WNW 10.4 mph 17.3 mph N/A Snow Light Snow
5:33 PM 32.0 °F 23.6 °F 30.2 °F 93% 29.85 in 5.0 mi WNW 10.4 mph - N/A   Overcast
5:53 PM 32.0 °F 23.6 °F 30.2 °F 93% 29.86 in 5.0 mi WNW 10.4 mph - 0.01 in Snow Light Snow
6:13 PM 32.0 °F 23.0 °F 30.2 °F 93% 29.87 in 7.0 mi WNW 11.5 mph 16.1 mph N/A   Overcast
6:33 PM 32.0 °F 22.5 °F 30.2 °F 93% 29.88 in 7.0 mi WNW 12.7 mph 16.1 mph N/A Snow Light Snow
6:53 PM 32.0 °F 24.2 °F 30.2 °F 93% 29.89 in 10.0 mi WNW 9.2 mph 18.4 mph N/A   Overcast
7:13 PM 32.0 °F 23.0 °F 30.2 °F 93% 29.90 in 7.0 mi WNW 11.5 mph 17.3 mph N/A   Overcast
7:33 PM 32.0 °F 22.5 °F 30.2 °F 93% 29.90 in 5.0 mi WNW 12.7 mph 18.4 mph N/A Snow Light Snow
7:53 PM 32.0 °F 23.6 °F 30.2 °F 93% 29.91 in 5.0 mi WNW 10.4 mph 16.1 mph N/A   Overcast
8:13 PM 32.0 °F 23.0 °F 30.2 °F 93% 29.92 in 7.0 mi WNW 11.5 mph - N/A Snow Light Snow
8:33 PM 32.0 °F 23.0 °F 30.2 °F 93% 29.94 in 4.0 mi WNW 11.5 mph 17.3 mph N/A Snow Light Snow
8:53 PM 32.0 °F 22.1 °F 30.2 °F 93% 29.95 in 7.0 mi WNW 13.8 mph 19.6 mph N/A Snow Light Snow
9:13 PM 32.0 °F 23.0 °F 30.2 °F 93% 29.96 in 5.0 mi NW 11.5 mph 16.1 mph N/A   Overcast
9:33 PM 32.0 °F 23.0 °F 30.2 °F 93% 29.97 in 4.0 mi NW 11.5 mph 16.1 mph N/A Snow Light Snow
9:53 PM 32.0 °F 22.1 °F 30.2 °F 93% 29.99 in 10.0 mi NW 13.8 mph 18.4 mph N/A   Overcast
10:13 PM 32.0 °F 23.0 °F 28.4 °F 87% 30.00 in 10.0 mi NW 11.5 mph 20.7 mph N/A   Overcast
10:33 PM 32.0 °F 23.0 °F 28.4 °F 87% 30.01 in 5.0 mi NW 11.5 mph 19.6 mph N/A   Overcast
10:53 PM 32.0 °F 24.2 °F 28.4 °F 87% 30.02 in 10.0 mi NW 9.2 mph 16.1 mph N/A   Overcast
11:13 PM 32.0 °F 22.1 °F 28.4 °F 87% 30.03 in 10.0 mi NW 13.8 mph 19.6 mph N/A   Overcast
11:33 PM 32.0 °F 23.0 °F 28.4 °F 87% 30.04 in 10.0 mi NW 11.5 mph - N/A   Overcast
11:53 PM 32.0 °F 23.0 °F 28.4 °F 87% 30.06 in 10.0 mi NW 11.5 mph 16.1 mph N/A   Overcast